{"data":{"norad_id":55807,"intl_designator":"2023-029M","name":"ONEWEB-0643","alt_names":[],"object_type":"PAYLOAD","status":"ACTIVE","operator":null,"country":"UK","launch_date":"2023-03-09","launch_site_code":"AFETR","launch_vehicle":null,"mission":null,"orbit_class":"UNKNOWN","rcs_meters":null,"size_class":null,"mass_kg":null,"dimensions":null,"purposes":["comms"],"wikipedia_slug":null,"has_3d_model":false,"image_url":null,"decayed_at":null,"tle_current":{"epoch":"2026-05-25T03:45:24.420960Z","epoch_age_seconds":72247,"freshness":"FRESH","line1":"1 55807U 23029M   26145.15653265  .00000127  00000+0  30687-3 0  9998","line2":"2 55807  87.8931 294.3250 0001174 105.7149 254.4111 13.14502093156365","mean_motion":13.14502093,"eccentricity":0.0001174,"inclination_deg":87.8931,"raan_deg":294.325,"arg_perigee_deg":105.7149,"mean_anomaly_deg":254.4111,"bstar":0.00030687,"rev_number":15636,"period_min":109.54718198383,"perigee_km":1204.9027205775,"apogee_km":1206.6834273589,"semimajor_km":7583.9300739682,"source":"CELESTRAK","updated_at":"2026-05-25T13:38:22.691663Z"}}}